Regional Weather Roundup
Issued by NWS Sterling, VA

Home | Current Version | Previous Version | Graphics & Text | Print | Product List | Glossary On
Versions: 1 2 3 4 5 6 7 8 9 10 11 12 13 14 15 16 17 18 19 20 21 22 23 24 25 26 27 28 29 30 31 32 33 34 35 36 37 38 39 40 41 42 43 44 45 46
000
ASUS41 KLWX 300910
RWRLWX

REGIONAL WEATHER ROUNDUP
NATIONAL WEATHER SERVICE BALTIMORE MD/WASHINGTON DC
500 AM EDT THU JUL 30 2015

Note: "FAIR" indicates few or no clouds below 12,000 feet
with no significant weather and/or obstructions to visibility.
 TC=TEMPERATURE CELSIUS

 * =Non NWS site. Station does not report precipitation (e.g. rain,
    snow, etc.), thunder, or fog.

DCZ001-MDZ009-015-VAZ040>042-051-053>054-301000-
WASHINGTON METRO

CITY           SKY/WX    TMP DP  RH WIND       PRES   REMARKS
WASHINGTON NAT MOCLDY    80  74  81 S13       29.91F
DULLES         PTCLDY    76  72  87 S9        29.91F
ANDREWS AFB    PTCLDY    76  73  90 S9        29.91F
FT BELVOIR     CLEAR     76  73  90 SE6       29.91F
QUANTICO       PTCLDY    79  73  82 SW10      29.92F
COLLEGE PARK*  PTCLDY    79  73  83 S5        29.91S
LEESBURG*      PTCLDY    75  75 100 SW7       29.92S
MANASSAS*      CLEAR     73  72  94 S5        29.91F
GAITHERSBURG*  MOCLDY    75  72  88 S5        29.95F

$$

MDZ006>007-011-014-301000-
BALTIMORE METRO

CITY           SKY/WX    TMP DP  RH WIND       PRES   REMARKS
BWI AIRPORT    PTCLDY    76  73  91 SW5       29.91S
MD SCIENCE CTR   N/A     78  73  84 MISG      29.91S
MARTIN STATE   MOCLDY    79  75  89 S3        29.92S
ANNAPOLIS      PTCLDY    78  71  79 S5        29.91S
FORT MEADE*    PTCLDY    72  70  94 CALM      29.93F

$$

MDZ012-015-019>023-301000-
MARYLAND EASTERN SHORE

CITY           SKY/WX    TMP DP  RH WIND       PRES   REMARKS
OCEAN CITY     PTCLDY    76  72  87 W3        29.96S
SALISBURY      CLEAR     74  73  97 S6        29.95S
BAY BRIDGE AP*   N/A     79  72  78 S7        29.92S
CAMBRIDGE*     CLEAR     79  72  78 S5        29.93S
EASTON*        CLEAR     79  75  86 SW8       29.97R

$$

MDZ017>025-301000-
SOUTHERN MARYLAND

CITY           SKY/WX    TMP DP  RH WIND       PRES   REMARKS
PATUXENT RIVER CLEAR     76  72  87 SW7       29.93F
ST INIGOES     CLEAR     78  72  81 S9        29.93F
LEONARDTOWN*   CLEAR     75  70  83 S3        29.95F

$$

MDZ003>005-301000-
NORTH CENTRAL MARYLAND

CITY           SKY/WX    TMP DP  RH WIND       PRES   REMARKS
FREDERICK*     MOCLDY    73  72  94 CALM      29.93S
HAGERSTOWN APT CLEAR     77  72  84 S5        29.91S
WESTMINSTER*   PTCLDY    75  73  94 S6        29.93R

$$

MDZ501>502-301000-
WESTERN MARYLAND

CITY           SKY/WX    TMP DP  RH WIND       PRES   REMARKS
OAKLAND*       CLEAR     68 N/A N/A SW6       30.04R FOG
CUMBERLAND*    CLEAR     73  73 100 CALM      29.96R

$$

VAZ025>031-301000-
SHENANDOAH VALLEY

CITY           SKY/WX    TMP DP  RH WIND       PRES   REMARKS
WINCHESTER*    MOCLDY    77  73  88 S3        29.92S
FRONT ROYAL*   CLOUDY    73  72  94 S3        29.91S
LURAY*         CLOUDY    77  77 100 SW6       29.93S
NEW MARKET*    FAIR      73  72  97 CALM      29.93R
STAUNTON*      CLEAR     75  72  89 S3        29.97F
WAYNESBORO*    FAIR      70  70  99 CALM      29.98S

$$

WVZ021-048>050-054>055-301000-
EASTERN WEST VIRGINIA PANHANDLE

CITY           SKY/WX    TMP DP  RH WIND       PRES   REMARKS
MARTINSBURG    MOCLDY    74  73  97 CALM      29.91R FOG
PETERSBURG*    CLEAR    N/A N/A N/A CALM      29.95S FOG

$$

VAZ036>039-050-301000-
CENTRAL FOOTHILLS

CITY           SKY/WX    TMP DP  RH WIND       PRES   REMARKS
CHARLOTTESVILL PTCLDY    75  72  90 S3        29.93S
CULPEPER*      CLEAR     73  72  95 CALM      29.92F
ORANGE*        CLEAR     73  72  94 CALM      29.94F
GORDONSVILLE*  FAIR      72  72 100 CALM      29.93S FOG
WARRENTON*     FAIR      75  74  97 CALM      29.91S

$$

VAZ055>057-301000-
NORTH AND CENTRAL PIEDMONT

CITY           SKY/WX    TMP DP  RH WIND       PRES   REMARKS
FREDERICKSBRG* CLEAR     77  77  99 S7        29.92S
STAFFORD*      CLEAR     74  71  92 CALM      29.97S

$$

NCZ024-NYZ072-PAZ021-071-VAZ022-071-301000-
OTHER REGIONAL OBSERVATIONS

CITY           SKY/WX    TMP DP  RH WIND       PRES   REMARKS
NEW YORK CITY  PTCLDY    80  70  71 W8        29.93F
PHILADELPHIA   MOCLDY    78  72  81 S8        29.92F
PITTSBURGH     CLOUDY    77  71  82 W6        29.93R
ROANOKE        PTCLDY    73  71  93 CALM      29.99F
RICHMOND       PTCLDY    74  70  87 CALM      29.95S
RALEIGH        MOCLDY    75  70  84 S3        29.97S

$$

ANZ530>537-301000-
MARINE OBSERVATIONS

STATION/POSITION TIME  TEMP    WIND        PRES
                       AIR SEA DIR/SP/G
                 (UTC) (F)     (DEG/KT/KT) (MB)
THOMAS PT LIGHT  NOT AVBL
BALT KEY BRIDGE  0800   78                 1012.7
COVE POINT       0800   77                 1014.3
LEWISETTA        0800   77                 1013.3

$$



USA.gov is the U.S. government's official web portal to all federal, state and local government web resources and services.